User: anonymous
Location: Lamoine Observatory
(44.4551°N, 68.3470°W)
Time: 03:40:57
(UTC-04:00)
Language:

Cosmos 1674 Rocket - Orbit

View from above orbital plane
View from above orbital plane
View from above satellite
View from above satellite

Ground track
Ground track

The orbit data is extracted from the following two-line orbital elements,

1 15945U 85069B   14112.15196889  .00000657  00000-0  76984-4 0  6272
2 15945 082.5254 131.5676 0021585 121.6606 281.0085 14.83306697550218
Epoch (UTC): 22 April 2014 03:38:50
Eccentricity: 0.0021585
inclination: 82.5254°
perigee height: 604 km
apogee height: 634 km
right ascension of ascending node: 131.5676°
argument of perigee: 121.6606°
revolutions per day: 14.83306697
mean anomaly at epoch: 281.0085°
orbit number at epoch: 55021

The dashed part of the orbit path shows where the satellite is in the earth's shadow,  

DLR